| time (UTC) | temp F | wind direction | speed MPH | gust MPH | rain 1hr in | rain 24hr in | rain mn in | humidity % | barometer mb |
| 20260502223539 | 78 | 288 | 3.0 | 6.0 | 0.00 | 0.00 | 0.00 | 34 | 1019.3 |
| 20260502223037 | 78 | 303 | 4.0 | 6.0 | 0.00 | 0.00 | 0.00 | 35 | 1019.3 |
| 20260502222534 | 79 | 275 | 3.0 | 6.0 | 0.00 | 0.00 | 0.00 | 35 | 1019.2 |
| 20260502222030 | 79 | 251 | 3.0 | 5.0 | 0.00 | 0.00 | 0.00 | 35 | 1019.3 |
| 20260502221527 | 78 | 262 | 3.0 | 6.0 | 0.00 | 0.00 | 0.00 | 35 | 1019.4 |
| 20260502221025 | 79 | 290 | 3.0 | 7.0 | 0.00 | 0.00 | 0.00 | 36 | 1019.3 |
| 20260502220522 | 79 | 274 | 3.0 | 7.0 | 0.00 | 0.00 | 0.00 | 37 | 1019.4 |
| 20260502220019 | 79 | 227 | 4.0 | 11.0 | 0.00 | 0.00 | 0.00 | 35 | 1019.6 |
| 20260502215517 | 78 | 237 | 3.0 | 7.0 | 0.00 | 0.00 | 0.00 | 34 | 1019.4 |
| 20260502215033 | 78 | 265 | 4.0 | 8.0 | 0.00 | 0.00 | 0.00 | 35 | 1019.5 |
| 20260502214530 | 78 | 267 | 4.0 | 7.0 | 0.00 | 0.00 | 0.00 | 35 | 1019.5 |
| 20260502214027 | 77 | 91 | 3.0 | 6.0 | 0.00 | 0.00 | 0.00 | 35 | 1019.5 |
| 20260502213523 | 78 | 290 | 4.0 | 8.0 | 0.00 | 0.00 | 0.00 | 35 | 1019.7 |
| 20260502213021 | 79 | 247 | 3.0 | 8.0 | 0.00 | 0.00 | 0.00 | 35 | 1019.7 |
| 20260502212518 | 79 | 250 | 4.0 | 9.0 | 0.00 | 0.00 | 0.00 | 35 | 1019.7 |
| 20260502212034 | 78 | 295 | 2.0 | 10.0 | 0.00 | 0.00 | 0.00 | 35 | 1019.8 |
| 20260502211531 | 78 | 267 | 4.0 | 8.0 | 0.00 | 0.00 | 0.00 | 34 | 1019.9 |
| 20260502211029 | 78 | 323 | 1.0 | 5.0 | 0.00 | 0.00 | 0.00 | 35 | 1019.9 |
| 20260502210526 | 78 | 337 | 2.0 | 5.0 | 0.00 | 0.00 | 0.00 | 36 | 1020.1 |
| 20260502210024 | 77 | 22 | 3.0 | 4.0 | 0.00 | 0.00 | 0.00 | 37 | 1020.0 |
| 20260502205521 | 79 | 331 | 3.0 | 6.0 | 0.00 | 0.00 | 0.00 | 36 | 1020.1 |
| 20260502205018 | 79 | 256 | 2.0 | 4.0 | 0.00 | 0.00 | 0.00 | 34 | 1020.1 |
| 20260502204535 | 78 | 269 | 2.0 | 5.0 | 0.00 | 0.00 | 0.00 | 35 | 1020.2 |
| 20260502204111 | 77 | 330 | 3.0 | 7.0 | 0.00 | 0.00 | 0.00 | 37 | 1020.2 |
| 20260502203608 | 77 | 315 | 2.0 | 4.0 | 0.00 | 0.00 | 0.00 | 36 | 1020.3 |
| 20260502203024 | 76 | 314 | 2.0 | 4.0 | 0.00 | 0.00 | 0.00 | 37 | 1020.3 |
| 20260502202542 | 76 | 360 | 3.0 | 5.0 | 0.00 | 0.00 | 0.00 | 36 | 1020.4 |
| 20260502202018 | 76 | 32 | 4.0 | 8.0 | 0.00 | 0.00 | 0.00 | 38 | 1020.3 |
| 20260502201535 | 76 | 41 | 6.0 | 11.0 | 0.00 | 0.00 | 0.00 | 37 | 1020.3 |
| 20260502201052 | 75 | 48 | 4.0 | 7.0 | 0.00 | 0.00 | 0.00 | 37 | 1020.5 |
| 20260502200529 | 76 | 358 | 4.0 | 9.0 | 0.00 | 0.00 | 0.00 | 37 | 1020.6 |
| 20260502200026 | 77 | 318 | 4.0 | 10.0 | 0.00 | 0.00 | 0.00 | 36 | 1020.5 |
| 20260502195523 | 77 | 260 | 3.0 | 5.0 | 0.00 | 0.00 | 0.00 | 36 | 1020.5 |
| 20260502195019 | 76 | 88 | 1.0 | 4.0 | 0.00 | 0.00 | 0.00 | 36 | 1020.6 |
| 20260502194516 | 75 | 19 | 3.0 | 10.0 | 0.00 | 0.00 | 0.00 | 37 | 1020.5 |
| 20260502194032 | 75 | 21 | 3.0 | 8.0 | 0.00 | 0.00 | 0.00 | 37 | 1020.7 |
| 20260502193529 | 76 | 13 | 3.0 | 8.0 | 0.00 | 0.00 | 0.00 | 36 | 1020.8 |
| 20260502193027 | 76 | 13 | 3.0 | 6.0 | 0.00 | 0.00 | 0.00 | 37 | 1020.8 |
| 20260502192524 | 77 | 281 | 4.0 | 8.0 | 0.00 | 0.00 | 0.00 | 36 | 1020.9 |
| 20260502192022 | 77 | 281 | 2.0 | 6.0 | 0.00 | 0.00 | 0.00 | 36 | 1020.8 |
| 20260502191519 | 76 | 213 | 3.0 | 8.0 | 0.00 | 0.00 | 0.00 | 35 | 1020.9 |
| 20260502191016 | 76 | 272 | 3.0 | 6.0 | 0.00 | 0.00 | 0.00 | 36 | 1021.0 |
| 20260502190554 | 76 | 256 | 3.0 | 5.0 | 0.00 | 0.00 | 0.00 | 36 | 1021.1 |
| 20260502190031 | 76 | 291 | 3.0 | 7.0 | 0.00 | 0.00 | 0.00 | 36 | 1021.2 |
| 20260502185529 | 75 | 308 | 3.0 | 6.0 | 0.00 | 0.00 | 0.00 | 37 | 1021.2 |
| 20260502185025 | 75 | 292 | 3.0 | 6.0 | 0.00 | 0.00 | 0.00 | 36 | 1021.2 |
| 20260502184522 | 76 | 37 | 2.0 | 5.0 | 0.00 | 0.00 | 0.00 | 36 | 1021.3 |
| 20260502184039 | 76 | 245 | 4.0 | 6.0 | 0.00 | 0.00 | 0.00 | 36 | 1021.3 |
| 20260502183516 | 76 | 317 | 2.0 | 5.0 | 0.00 | 0.00 | 0.00 | 36 | 1021.4 |
| 20260502182549 | 74 | 223 | 3.0 | 8.0 | 0.00 | 0.00 | 0.00 | 36 | 1021.6 |
| 20260502182026 | 75 | 5 | 2.0 | 4.0 | 0.00 | 0.00 | 0.00 | 36 | 1021.7 |
| 20260502181523 | 74 | 5 | 3.0 | 6.0 | 0.00 | 0.00 | 0.00 | 38 | 1021.6 |
| 20260502181040 | 74 | 31 | 4.0 | 6.0 | 0.00 | 0.00 | 0.00 | 37 | 1021.6 |
| 20260502180517 | 74 | 45 | 3.0 | 9.0 | 0.00 | 0.00 | 0.00 | 36 | 1021.7 |
| 20260502170519 | 74 | 254 | 2.0 | 5.0 | 0.00 | 0.00 | 0.00 | 35 | 1022.4 |
| 20260502164023 | 71 | 281 | 3.0 | 6.0 | 0.00 | 0.00 | 0.00 | 39 | 1022.5 |
| 20260502163520 | 71 | 301 | 2.0 | 4.0 | 0.00 | 0.00 | 0.00 | 39 | 1022.4 |
| 20260502163017 | 71 | 1 | 2.0 | 6.0 | 0.00 | 0.00 | 0.00 | 38 | 1022.5 |
| 20260502162534 | 71 | 36 | 3.0 | 6.0 | 0.00 | 0.00 | 0.00 | 40 | 1022.5 |
| 20260502162051 | 72 | 25 | 3.0 | 8.0 | 0.00 | 0.00 | 0.00 | 42 | 1022.5 |
| 20260502161527 | 71 | 309 | 2.0 | 4.0 | 0.00 | 0.00 | 0.00 | 43 | 1022.4 |
| 20260502161105 | 70 | 17 | 4.0 | 7.0 | 0.00 | 0.00 | 0.00 | 42 | 1022.4 |
| 20260502160521 | 71 | 40 | 2.0 | 6.0 | 0.00 | 0.00 | 0.00 | 43 | 1022.3 |
| 20260502152033 | 69 | 348 | 2.0 | 4.0 | 0.00 | 0.00 | 0.00 | 50 | 1022.0 |
| 20260502151530 | 68 | 328 | 2.0 | 4.0 | 0.00 | 0.00 | 0.00 | 52 | 1022.1 |
| 20260502151027 | 67 | 19 | 2.0 | 7.0 | 0.00 | 0.00 | 0.00 | 52 | 1022.0 |
| 20260502150544 | 67 | 46 | 4.0 | 7.0 | 0.00 | 0.00 | 0.00 | 50 | 1022.0 |
| 20260502130528 | 56 | 327 | 1.0 | 3.0 | 0.00 | 0.00 | 0.00 | 84 | 1021.4 |
| 20260502123529 | 54 | 279 | 1.0 | 4.0 | 0.00 | 0.00 | 0.00 | 88 | 1021.0 |
| 20260502123026 | 54 | 355 | 1.0 | 4.0 | 0.00 | 0.00 | 0.00 | 89 | 1020.9 |
| 20260502122543 | 53 | 314 | 1.0 | 3.0 | 0.00 | 0.00 | 0.00 | 90 | 1020.8 |
| 20260502122020 | 53 | 9 | 1.0 | 4.0 | 0.00 | 0.00 | 0.00 | 90 | 1020.5 |
| 20260502121517 | 52 | 34 | 1.0 | 2.0 | 0.00 | 0.00 | 0.00 | 91 | 1020.5 |
| 20260502121034 | 52 | 80 | 0.0 | 2.0 | 0.00 | 0.00 | 0.00 | 91 | 1020.6 |
| 20260502120531 | 52 | 249 | 0.0 | 2.0 | 0.00 | 0.00 | 0.00 | 91 | 1020.4 |
| 20260502115524 | 51 | 91 | 1.0 | 2.0 | 0.00 | 0.00 | 0.00 | 92 | 1020.2 |
| 20260502115022 | 51 | 78 | 2.0 | 3.0 | 0.00 | 0.00 | 0.00 | 92 | 1020.2 |
| 20260502114518 | 51 | 345 | 1.0 | 3.0 | 0.00 | 0.00 | 0.00 | 92 | 1020.2 |
| 20260502114036 | 51 | 41 | 2.0 | 4.0 | 0.00 | 0.00 | 0.00 | 92 | 1020.1 |
| 20260502113552 | 50 | 32 | 2.0 | 4.0 | 0.00 | 0.00 | 0.00 | 91 | 1019.9 |
| 20260502113029 | 51 | 57 | 2.0 | 3.0 | 0.00 | 0.00 | 0.00 | 91 | 1020.0 |
| 20260502112546 | 51 | 50 | 1.0 | 2.0 | 0.00 | 0.00 | 0.00 | 91 | 1019.9 |
| 20260502112022 | 51 | 14 | 1.0 | 3.0 | 0.00 | 0.00 | 0.00 | 91 | 1019.8 |
| 20260502111540 | 51 | 56 | 1.0 | 3.0 | 0.00 | 0.00 | 0.00 | 91 | 1019.7 |
| 20260502111016 | 50 | 186 | 1.0 | 2.0 | 0.00 | 0.00 | 0.00 | 91 | 1019.6 |
| 20260502110533 | 50 | 71 | 1.0 | 3.0 | 0.00 | 0.00 | 0.00 | 90 | 1019.5 |
| 20260502110030 | 50 | 64 | 2.0 | 3.0 | 0.00 | 0.00 | 0.00 | 90 | 1019.5 |
| 20260502105528 | 51 | 85 | 2.0 | 3.0 | 0.00 | 0.00 | 0.00 | 89 | 1019.5 |
| 20260502105025 | 51 | 69 | 1.0 | 3.0 | 0.00 | 0.00 | 0.00 | 89 | 1019.5 |
| 20260502104523 | 51 | 58 | 2.0 | 3.0 | 0.00 | 0.00 | 0.00 | 89 | 1019.4 |
| 20260502060546 | 55 | 54 | 1.0 | 2.0 | 0.00 | 0.00 | 0.00 | 77 | 1019.3 |
| 20260502060021 | 55 | 58 | 2.0 | 2.0 | 0.00 | 0.00 | 0.00 | 76 | 1019.3 |
| 20260502055539 | 56 | 66 | 1.0 | 2.0 | 0.00 | 0.00 | 0.00 | 75 | 1019.2 |
| 20260502055016 | 56 | 194 | 1.0 | 2.0 | 0.00 | 0.00 | 0.00 | 74 | 1019.3 |
| 20260502054532 | 56 | 182 | 1.0 | 3.0 | 0.00 | 0.00 | 0.00 | 75 | 1019.2 |
| 20260502054029 | 56 | 158 | 1.0 | 3.0 | 0.00 | 0.00 | 0.00 | 75 | 1019.2 |
| 20260502053526 | 56 | 154 | 0.0 | 2.0 | 0.00 | 0.00 | 0.00 | 75 | 1019.2 |
| 20260502053022 | 56 | 99 | 0.0 | 2.0 | 0.00 | 0.00 | 0.00 | 75 | 1019.3 |
| 20260502052520 | 56 | 102 | 0.0 | 2.0 | 0.00 | 0.00 | 0.00 | 75 | 1019.3 |
| 20260502052017 | 56 | 172 | 0.0 | 2.0 | 0.00 | 0.00 | 0.00 | 75 | 1019.4 |
| 20260502051533 | 56 | 112 | 0.0 | 2.0 | 0.00 | 0.00 | 0.00 | 75 | 1019.3 |
| 20260502051030 | 57 | 0.0 | 2.0 | 0.00 | 0.00 | 0.00 | 74 | 1019.4 | |
| 20260502050526 | 57 | 227 | 0.0 | 2.0 | 0.00 | 0.00 | 0.00 | 74 | 1019.3 |
| 20260502050022 | 57 | 198 | 0.0 | 1.0 | 0.00 | 0.00 | 0.00 | 74 | 1019.3 |
| 20260502045520 | 57 | 212 | 0.0 | 2.0 | 0.00 | 0.00 | 0.00 | 74 | 1019.3 |
| 20260502045017 | 57 | 0.0 | 1.0 | 0.00 | 0.00 | 0.00 | 74 | 1019.4 | |
| 20260502044534 | 57 | 65 | 0.0 | 1.0 | 0.00 | 0.00 | 0.00 | 74 | 1019.3 |
| 20260502044030 | 57 | 0.0 | 1.0 | 0.00 | 0.00 | 0.00 | 73 | 1019.3 | |
| 20260502043527 | 58 | 125 | 0.0 | 2.0 | 0.00 | 0.00 | 0.00 | 73 | 1019.3 |
| 20260502043023 | 58 | 171 | 1.0 | 2.0 | 0.00 | 0.00 | 0.00 | 73 | 1019.2 |
| 20260502042520 | 58 | 139 | 0.0 | 2.0 | 0.00 | 0.00 | 0.00 | 73 | 1019.2 |
| 20260502042017 | 58 | 206 | 0.0 | 2.0 | 0.00 | 0.00 | 0.00 | 72 | 1019.3 |
| 20260502041534 | 58 | 196 | 1.0 | 2.0 | 0.00 | 0.00 | 0.00 | 72 | 1019.2 |
| 20260502041031 | 58 | 167 | 0.0 | 2.0 | 0.00 | 0.00 | 0.00 | 72 | 1019.2 |
| 20260502040548 | 58 | 193 | 1.0 | 2.0 | 0.00 | 0.00 | 0.00 | 71 | 1019.1 |
| 20260502040024 | 58 | 144 | 0.0 | 2.0 | 0.00 | 0.00 | 0.00 | 71 | 1019.2 |
| 20260502035521 | 59 | 99 | 1.0 | 2.0 | 0.00 | 0.00 | 0.00 | 71 | 1019.1 |
| 20260502035018 | 59 | 94 | 0.0 | 2.0 | 0.00 | 0.00 | 0.00 | 70 | 1019.1 |
| 20260502034535 | 59 | 133 | 0.0 | 1.0 | 0.00 | 0.00 | 0.00 | 70 | 1019.0 |
| 20260502034032 | 59 | 112 | 0.0 | 2.0 | 0.00 | 0.00 | 0.00 | 70 | 1019.0 |
| 20260502033529 | 59 | 113 | 1.0 | 2.0 | 0.00 | 0.00 | 0.00 | 70 | 1018.9 |
| 20260502033026 | 59 | 87 | 0.0 | 2.0 | 0.00 | 0.00 | 0.00 | 69 | 1018.8 |
| 20260502032523 | 59 | 99 | 0.0 | 2.0 | 0.00 | 0.00 | 0.00 | 69 | 1018.7 |
| 20260502032019 | 59 | 118 | 1.0 | 3.0 | 0.00 | 0.00 | 0.00 | 68 | 1018.9 |
| 20260502031536 | 60 | 97 | 0.0 | 2.0 | 0.00 | 0.00 | 0.00 | 68 | 1018.9 |
| 20260502031033 | 60 | 119 | 1.0 | 2.0 | 0.00 | 0.00 | 0.00 | 67 | 1018.8 |
| 20260502030530 | 60 | 134 | 1.0 | 2.0 | 0.00 | 0.00 | 0.00 | 67 | 1018.8 |
| 20260502030027 | 60 | 124 | 1.0 | 2.0 | 0.00 | 0.00 | 0.00 | 66 | 1018.8 |
| 20260502025543 | 61 | 47 | 0.0 | 2.0 | 0.00 | 0.00 | 0.00 | 66 | 1018.8 |
| 20260502025020 | 61 | 95 | 0.0 | 2.0 | 0.00 | 0.00 | 0.00 | 65 | 1018.6 |
| 20260502024517 | 61 | 151 | 0.0 | 2.0 | 0.00 | 0.00 | 0.00 | 65 | 1018.6 |
| 20260502024034 | 61 | 86 | 0.0 | 2.0 | 0.00 | 0.00 | 0.00 | 65 | 1018.3 |
| 20260502023551 | 61 | 171 | 0.0 | 2.0 | 0.00 | 0.00 | 0.00 | 65 | 1018.3 |
| 20260502023027 | 61 | 129 | 0.0 | 2.0 | 0.00 | 0.00 | 0.00 | 64 | 1018.2 |
| 20260502022524 | 62 | 106 | 1.0 | 2.0 | 0.00 | 0.00 | 0.00 | 64 | 1018.2 |
| 20260502022021 | 62 | 135 | 1.0 | 3.0 | 0.00 | 0.00 | 0.00 | 64 | 1018.1 |
| 20260502021618 | 62 | 174 | 0.0 | 1.0 | 0.00 | 0.00 | 0.00 | 64 | 1018.1 |
| 20260502021034 | 62 | 0.0 | 1.0 | 0.00 | 0.00 | 0.00 | 64 | 1018.1 | |
| 20260502020531 | 62 | 0.0 | 1.0 | 0.00 | 0.00 | 0.00 | 64 | 1018.0 | |
| 20260502020028 | 62 | 120 | 1.0 | 2.0 | 0.00 | 0.00 | 0.00 | 63 | 1018.0 |
| 20260502015525 | 62 | 120 | 0.0 | 2.0 | 0.00 | 0.00 | 0.00 | 63 | 1017.9 |
| 20260502015021 | 62 | 117 | 0.0 | 1.0 | 0.00 | 0.00 | 0.00 | 64 | 1017.7 |
| 20260502014538 | 62 | 0.0 | 1.0 | 0.00 | 0.00 | 0.00 | 65 | 1017.6 | |
| 20260502014035 | 62 | 0.0 | 0.0 | 0.00 | 0.00 | 0.00 | 64 | 1017.4 | |
| 20260502013532 | 62 | 55 | 0.0 | 1.0 | 0.00 | 0.00 | 0.00 | 64 | 1017.4 |
| 20260502013030 | 63 | 0.0 | 1.0 | 0.00 | 0.00 | 0.00 | 62 | 1017.3 | |
| 20260502012527 | 63 | 0.0 | 1.0 | 0.00 | 0.00 | 0.00 | 62 | 1017.2 | |
| 20260502012024 | 63 | 126 | 0.0 | 2.0 | 0.00 | 0.00 | 0.00 | 61 | 1017.1 |
| 20260502011521 | 63 | 98 | 1.0 | 2.0 | 0.00 | 0.00 | 0.00 | 60 | 1017.0 |
| 20260502011018 | 63 | 78 | 1.0 | 2.0 | 0.00 | 0.00 | 0.00 | 59 | 1017.0 |
| 20260502010535 | 63 | 73 | 2.0 | 3.0 | 0.00 | 0.00 | 0.00 | 59 | 1016.8 |
| 20260502010032 | 64 | 71 | 2.0 | 3.0 | 0.00 | 0.00 | 0.00 | 59 | 1016.6 |
| 20260502005527 | 64 | 71 | 2.0 | 3.0 | 0.00 | 0.00 | 0.00 | 59 | 1016.5 |
| 20260502005024 | 64 | 80 | 2.0 | 4.0 | 0.00 | 0.00 | 0.00 | 58 | 1016.5 |
| 20260502004522 | 64 | 79 | 2.0 | 4.0 | 0.00 | 0.00 | 0.00 | 58 | 1016.4 |
| 20260502004019 | 64 | 80 | 2.0 | 4.0 | 0.00 | 0.00 | 0.00 | 58 | 1016.3 |
| 20260502003516 | 64 | 77 | 3.0 | 5.0 | 0.00 | 0.00 | 0.00 | 58 | 1016.1 |
| 20260502003033 | 64 | 81 | 3.0 | 5.0 | 0.00 | 0.00 | 0.00 | 58 | 1016.2 |
| 20260502002529 | 64 | 82 | 2.0 | 4.0 | 0.00 | 0.00 | 0.00 | 58 | 1016.1 |
| 20260502002026 | 64 | 97 | 3.0 | 5.0 | 0.00 | 0.00 | 0.00 | 58 | 1016.0 |
| 20260502001524 | 64 | 77 | 3.0 | 7.0 | 0.00 | 0.00 | 0.00 | 58 | 1016.0 |
| 20260502001022 | 64 | 101 | 2.0 | 4.0 | 0.00 | 0.00 | 0.00 | 57 | 1015.9 |
| 20260502000539 | 65 | 108 | 2.0 | 4.0 | 0.00 | 0.00 | 0.00 | 56 | 1016.0 |
| 20260502000015 | 65 | 103 | 3.0 | 5.0 | 0.00 | 0.00 | 0.00 | 57 | 1016.0 |
| 20260501235533 | 65 | 114 | 2.0 | 3.0 | 0.00 | 0.00 | 0.00 | 57 | 1015.9 |
| 20260501235029 | 65 | 79 | 2.0 | 4.0 | 0.00 | 0.00 | 0.00 | 57 | 1015.9 |
| 20260501234526 | 65 | 80 | 3.0 | 5.0 | 0.00 | 0.00 | 0.00 | 57 | 1015.7 |
| 20260501234023 | 65 | 80 | 3.0 | 6.0 | 0.00 | 0.00 | 0.00 | 56 | 1015.6 |
| 20260501233520 | 65 | 68 | 3.0 | 5.0 | 0.00 | 0.00 | 0.00 | 56 | 1015.7 |
| 20260501233017 | 65 | 70 | 3.0 | 5.0 | 0.00 | 0.00 | 0.00 | 56 | 1015.6 |
| 20260501232535 | 65 | 70 | 4.0 | 8.0 | 0.00 | 0.00 | 0.00 | 55 | 1015.5 |
| 20260501232032 | 65 | 81 | 4.0 | 6.0 | 0.00 | 0.00 | 0.00 | 55 | 1015.5 |
| 20260501231529 | 65 | 77 | 3.0 | 4.0 | 0.00 | 0.00 | 0.00 | 56 | 1015.5 |
| 20260501231026 | 65 | 79 | 4.0 | 8.0 | 0.00 | 0.00 | 0.00 | 54 | 1015.6 |
| 20260501230523 | 65 | 80 | 5.0 | 8.0 | 0.00 | 0.00 | 0.00 | 55 | 1015.5 |
| 20260501230020 | 65 | 77 | 4.0 | 6.0 | 0.00 | 0.00 | 0.00 | 55 | 1015.4 |
| 20260501225517 | 65 | 68 | 4.0 | 8.0 | 0.00 | 0.00 | 0.00 | 55 | 1015.4 |
| 20260501225034 | 65 | 74 | 4.0 | 7.0 | 0.00 | 0.00 | 0.00 | 56 | 1015.4 |
| 20260501224530 | 65 | 74 | 5.0 | 9.0 | 0.00 | 0.00 | 0.00 | 55 | 1015.4 |
| 20260501224027 | 65 | 71 | 4.0 | 8.0 | 0.00 | 0.00 | 0.00 | 56 | 1015.5 |